This is the latest recevied weather packets stored in our database for station/object DB0BGL. If no packets are shown the sender has not sent any weather packets the latest 10 day(s).
| Time | Temp. | Humidity | Pressure | Rain* | Wind** | Luminosity | Snow |
|---|---|---|---|---|---|---|---|
| 1777984535 | 16.11° C | 39% | 0 hPa | 0 mm | - | - | - |
| 1777983934 | 16.11° C | 38% | 0 hPa | 0 mm | - | - | - |
| 1777983334 | 16.67° C | 37% | 0 hPa | 0 mm | - | - | - |
| 1777982734 | 17.78° C | 100% | 0 hPa | 0 mm | - | - | - |
| 1777982132 | 19.44° C | 31% | 0 hPa | 0 mm | - | - | - |
| 1777981532 | 17.78° C | 35% | 0 hPa | 0 mm | - | - | - |
| 1777980932 | 15.56° C | 41% | 0 hPa | 0 mm | - | - | - |
| 1777980331 | 14.44° C | 41% | 0 hPa | 0 mm | - | - | - |
| 1777979730 | 14.44° C | 42% | 0 hPa | 0 mm | - | - | - |
| 1777979129 | 16.11° C | 36% | 0 hPa | 0 mm | - | - | - |
| 1777978529 | 15.56° C | 38% | 0 hPa | 0 mm | - | - | - |
| 1777977928 | 14.44° C | 40% | 0 hPa | 0 mm | - | - | - |
| 1777977328 | 13.33° C | 43% | 0 hPa | 0 mm | - | - | - |
| 1777968461 | 18.33° C | 36% | 0 hPa | 0 mm | - | - | - |
| 1777967860 | 17.22° C | 37% | 0 hPa | 0 mm | - | - | - |
| 1777967260 | 17.78° C | 37% | 0 hPa | 0 mm | - | - | - |
| 1777966659 | 17.78° C | 37% | 0 hPa | 0 mm | - | - | - |
| 1777966059 | 18.33° C | 35% | 0 hPa | 0 mm | - | - | - |
| 1777896151 | 18.33° C | 42% | 0 hPa | 0 mm | - | - | - |
| 1777895550 | 18.33° C | 43% | 0 hPa | 0 mm | - | - | - |
| 1777894951 | 19.44° C | 40% | 0 hPa | 0 mm | - | - | - |
| 1777894349 | 20° C | 39% | 0 hPa | 0 mm | - | - | - |
| 1777893749 | 18.89° C | 42% | 0 hPa | 0 mm | - | - | - |
| 1777893151 | 17.22° C | 45% | 0 hPa | 0 mm | - | - | - |
| 1777893148 | 17.22° C | 45% | 0 hPa | 0 mm | - | - | - |
* Rain latest hour (hover to see other rain measurements)
** Current wind speed in m/s (hover to see current wind gust speed)